Date,TemperatureHighF,TemperatureAvgF,TemperatureLowF,DewpointHighF,DewpointAvgF,DewpointLowF,HumidityHigh,HumidityAvg,HumidityLow,PressureMaxIn,PressureMinIn,WindSpeedMaxMPH,WindSpeedAvgMPH,GustSpeedMaxMPH,PrecipitationSumIn
2013-1-1,39.8,36.2,28.0,31.6,28.4,17.4,85,73,63,30.06,29.88,6,2,13,0.00
2013-1-2,33.0,26.9,22.6,19.9,17.6,15.6,87,68,53,30.24,30.02,7,2,13,0.00
2013-1-3,32.7,25.6,19.7,21.8,18.4,16.4,90,75,54,30.24,30.12,6,1,13,0.00
2013-1-4,37.4,32.2,22.6,24.9,23.0,19.5,90,69,58,30.15,30.02,9,4,18,0.00
2013-1-5,41.1,31.8,25.8,25.9,23.1,20.6,90,71,51,30.36,30.08,12,-448,13,0.00
2013-1-6,46.5,35.2,28.8,34.3,29.3,25.1,95,80,50,30.26,30.02,3,-695,13,0.01
2013-1-7,45.4,34.0,23.8,32.8,27.4,22.1,93,78,49,30.43,30.10,7,1,13,0.00
2013-1-8,47.4,30.6,20.1,34.4,25.8,18.4,97,84,58,30.45,30.37,6,1,10,0.00
2013-1-9,48.1,34.5,24.1,39.4,30.9,22.6,96,87,70,30.42,30.19,4,1,7,0.00
2013-1-10,49.1,36.7,27.7,31.0,28.8,25.9,95,75,47,30.56,30.31,6,2,10,0.00
2013-1-11,44.3,37.7,29.1,42.4,34.6,26.6,97,89,76,30.55,30.10,4,0,6,0.75
2013-1-12,47.8,44.0,41.8,45.7,43.0,41.3,98,96,91,30.19,30.10,2,0,6,0.01
2013-1-13,47.7,45.1,42.2,47.4,44.7,41.7,99,99,98,30.17,30.01,2,0,6,0.01
2013-1-14,53.9,48.7,39.3,52.5,45.5,35.8,99,89,62,30.31,29.93,4,1,7,0.13
2013-1-15,39.3,36.7,33.8,37.3,32.0,29.5,95,83,73,30.37,30.22,3,0,6,0.18
2013-1-16,35.7,33.8,32.1,34.8,32.8,31.1,97,96,93,30.22,29.84,5,1,9,0.91
2013-1-17,41.6,37.7,34.8,35.4,31.9,28.9,96,80,63,30.13,29.96,6,2,12,0.00
2013-1-18,35.6,28.7,22.2,30.8,18.3,10.1,89,67,42,30.51,30.02,8,2,15,0.00
2013-1-19,50.8,36.9,22.1,31.7,26.7,16.9,89,68,45,30.44,29.96,7,2,10,0.00
2013-1-20,53.3,39.6,28.7,32.9,24.9,13.6,93,59,28,30.08,29.76,10,5,20,0.00
2013-1-21,31.6,27.2,20.8,22.8,15.6,11.8,81,62,48,30.13,29.89,7,2,7,0.00
2013-1-22,24.9,18.2,12.7,13.3,1.9,-2.8,61,49,37,30.28,29.90,10,7,20,0.00
2013-1-23,19.5,13.4,8.2,5.9,1.6,-2.1,86,60,44,30.32,30.21,7,3,12,0.00
2013-1-24,24.8,17.0,9.1,9.7,4.9,0.0,88,62,35,30.48,30.15,9,3,15,0.00
2013-1-25,22.1,15.8,4.5,15.5,5.7,0.6,89,65,46,30.49,30.11,5,2,7,0.00
2013-1-26,27.6,16.2,2.9,13.9,8.9,-0.2,93,74,51,30.44,30.10,7,2,12,0.01
2013-1-27,34.3,18.4,4.8,19.7,12.0,2.1,93,78,49,30.59,30.44,6,1,11,0.00
2013-1-28,34.5,28.8,16.3,33.7,27.0,14.1,97,93,87,30.54,30.04,4,1,7,0.20
2013-1-29,48.6,40.7,32.6,45.7,39.2,31.6,100,95,86,30.17,30.04,2,0,6,0.07
2013-1-30,66.2,51.4,39.8,59.8,49.8,39.3,100,95,79,30.07,29.35,7,1,13,0.40
2013-1-31,61.1,42.5,28.1,59.1,31.4,13.2,98,66,43,29.86,29.09,14,8,21,1.01